[[{"header":{"parameterUnit":"m.s-1","parameterCategory":2,"la1":30.2991,"la2":30.254,"lo1":-89.0895,"lo2":-89.0444,"dy":0.0017,"dx":0.0017,"nx":28,"ny":28,"refTime":"2026-02-15T09:00:00:Z","depth":"0","parameterNumber":2,"parameterNumberName":"U-component_of_CURRENTS"},"data":[0,0,0,0,0,0,0,0,0,0,0,0,0,0,0,0,0,0,0,0,0,0,0,0,0,0,0,0,0,0,0,0,0,0,0,0,0,0,0,0,0,0,0,0,0,0,0,0,0,0,0,0,0,0,0,0,0,0,-0.2468,-0.2468,0,-0.2496,-0.2496,-0.2496,-0.247,-0.247,-0.2469,-0.2468,-0.243,-0.243,-0.2429,0,0,0,0,0,0,0,0,0,0,0,0,0,-0.2406,-0.2407,-0.2468,-0.2468,-0.2469,-0.2496,-0.2496,-0.2497,-0.2471,-0.247,-0.2468,-0.2468,-0.243,-0.243,-0.2429,0,0,0,0,0,0,0,0,0,0,0,0,0,-0.2431,-0.2407,-0.2468,-0.2461,-0.2461,-0.2496,-0.2496,-0.2497,-0.2471,-0.2469,-0.2468,-0.2467,-0.243,-0.243,-0.2429,-0.2453,0,0,-0.2428,-0.2428,0,0,0,0,0,0,0,0,-0.243,-0.2433,-0.2461,-0.2461,-0.2461,-0.248,-0.2461,-0.2479,-0.2471,-0.2464,-0.2468,-0.2466,-0.2443,-0.2442,-0.2447,-0.2451,-0.2449,-0.2428,-0.2428,-0.2428,-0.2428,0,0,0,0,0,0,0,-0.2428,-0.2432,-0.2477,-0.2462,-0.2462,-0.2462,-0.2463,-0.2464,-0.2458,-0.2465,-0.2464,-0.2471,-0.2442,-0.2448,-0.2446,-0.2449,-0.2428,-0.2428,-0.2428,-0.2428,-0.2453,-0.2454,0,0,0,0,0,0,-0.243,-0.243,-0.2476,-0.2478,-0.2445,-0.2464,-0.2466,-0.2474,-0.2459,-0.2457,-0.2472,-0.247,-0.2449,-0.2447,-0.2445,-0.2455,-0.2428,-0.2428,-0.2427,-0.2452,-0.2453,-0.2454,0,0,0,0,0,0,-0.2428,-0.2434,-0.2475,-0.2456,-0.2462,-0.2466,-0.2475,-0.2475,-0.2475,-0.2466,-0.2461,-0.2472,-0.2448,-0.2445,-0.2447,-0.2453,-0.2428,-0.2427,-0.2451,-0.2453,-0.2454,-0.2485,0,0,0,0,0,0,-0.2427,-0.2433,-0.2435,-0.2457,-0.2463,-0.2497,-0.2477,-0.2477,-0.2483,-0.248,-0.2464,-0.246,-0.2447,-0.2447,-0.2446,-0.2453,-0.2427,-0.245,-0.2452,-0.2453,-0.2483,-0.2488,-0.2491,0,0,0,0,0,-0.2424,-0.2435,-0.2435,-0.244,-0.2467,-0.2498,-0.2501,-0.2498,-0.2484,-0.2491,-0.248,-0.246,-0.2457,-0.2448,-0.2447,-0.2453,-0.2449,-0.2451,-0.2453,-0.2481,-0.2487,-0.2491,0,0,0,0,0,0,-0.2408,-0.2434,-0.2434,-0.2451,-0.2473,-0.2494,-0.2499,-0.2501,-0.25,-0.2491,-0.2474,-0.247,-0.2474,-0.2464,-0.2455,-0.2466,-0.2449,-0.2451,-0.2471,-0.2476,-0.248,-0.2468,-0.2427,0,0,0,0,0,-0.2408,-0.2418,-0.2448,-0.2459,-0.2472,-0.2486,-0.2495,-0.2499,-0.2505,-0.2503,-0.2494,-0.2485,-0.2485,-0.2479,-0.2479,-0.2487,-0.2458,-0.249,-0.2494,-0.2497,-0.2488,-0.246,-0.246,-0.2461,-0.2461,-0.2461,0,0,-0.2402,-0.2419,-0.2423,-0.2456,-0.2469,-0.2496,-0.2487,-0.2507,-0.2522,-0.2499,-0.2507,-0.2501,-0.2492,-0.25,-0.2501,-0.2489,-0.2484,-0.25,-0.2503,-0.2491,-0.2462,-0.2462,-0.2461,-0.2462,-0.2462,-0.2462,0,0,-0.2405,-0.2415,-0.2429,-0.2454,-0.2483,-0.2498,-0.2505,-0.253,-0.2531,-0.2548,-0.2533,-0.2529,-0.2534,-0.2524,-0.252,-0.2547,-0.2509,-0.2551,-0.2557,-0.2531,-0.253,-0.2528,-0.2494,-0.2489,-0.2549,-0.2549,-0.2549,0,-0.2396,-0.242,-0.2438,-0.2467,-0.2484,-0.25,-0.2525,-0.254,-0.2559,-0.2558,-0.2552,-0.255,-0.2543,-0.2541,-0.2551,-0.2554,-0.253,-0.2538,-0.2534,-0.2532,-0.253,-0.2495,-0.249,-0.2551,-0.2551,-0.2551,-0.255,0,-0.2416,-0.2438,-0.2451,-0.2488,-0.2512,-0.2535,-0.2566,-0.2579,-0.2581,-0.2589,-0.2589,-0.2582,-0.2572,-0.2577,-0.2572,-0.2562,-0.2546,-0.2544,-0.2517,-0.2532,-0.2494,-0.2488,-0.2554,-0.2553,-0.2552,-0.2552,0,0,-0.2382,-0.2449,-0.2452,-0.2472,-0.2523,-0.2543,-0.2574,-0.2598,-0.2602,-0.2615,-0.261,-0.2615,-0.2599,-0.2593,-0.2584,-0.2564,-0.2537,-0.255,-0.2548,-0.2508,-0.247,-0.2396,-0.2381,-0.2533,-0.2532,-0.2532,-0.2448,0,-0.2386,-0.2436,-0.247,-0.251,-0.2536,-0.2567,-0.2592,-0.2616,-0.2625,-0.2627,-0.2616,-0.2611,-0.2609,-0.2598,-0.2581,-0.2553,-0.2522,-0.2559,-0.2468,-0.2465,-0.239,-0.2372,-0.2296,-0.2209,-0.2442,-0.2441,-0.244,0,-0.2388,-0.2422,-0.2463,-0.2516,-0.2529,-0.2553,-0.2579,-0.2606,-0.2622,-0.2625,-0.2618,-0.2611,-0.2593,-0.2584,-0.2528,-0.2552,-0.2507,-0.248,-0.2477,-0.2388,-0.2378,-0.2233,-0.2189,-0.2175,-0.243,-0.2431,-0.2432,0,-0.2346,-0.2412,-0.2437,-0.2459,-0.2526,-0.2538,-0.2564,-0.2593,-0.2604,-0.2614,-0.261,-0.2597,-0.2572,-0.2536,-0.2487,-0.2504,-0.2411,-0.2427,-0.2313,-0.2308,-0.2212,-0.2199,-0.2132,-0.2365,-0.2365,-0.2365,-0.2365,0,-0.2334,-0.2354,-0.2417,-0.2434,-0.2452,-0.2509,-0.252,-0.2547,-0.2572,-0.2569,-0.2594,-0.2575,-0.2557,-0.251,-0.2474,-0.2365,-0.2395,-0.2296,-0.2275,-0.2222,-0.2211,-0.217,-0.2198,-0.2362,-0.2363,-0.2363,-0.2364,0,-0.2285,-0.2333,-0.2363,-0.2422,-0.2435,-0.2445,-0.2492,-0.2496,-0.2534,-0.2528,-0.2528,-0.254,-0.2479,-0.2446,-0.2372,-0.2324,-0.2203,-0.2197,-0.2131,-0.2102,-0.1984,-0.2017,-0.1916,-0.1859,-0.2057,-0.2055,-0.2053,0,-0.2263,-0.2273,-0.233,-0.2336,-0.236,-0.2386,-0.2396,-0.2458,-0.2464,-0.2495,-0.2479,-0.2442,-0.2388,-0.2264,-0.2177,-0.2074,-0.2089,-0.1944,-0.1959,-0.1945,-0.1967,-0.2,-0.1962,-0.185,-0.1846,-0.1844,-0.1841,0,-0.2204,-0.2223,-0.2244,-0.2259,-0.2272,-0.229,-0.2314,-0.2316,-0.2374,-0.2374,-0.2355,-0.232,-0.2216,-0.208,-0.1955,-0.1889,-0.1905,-0.1879,-0.1881,-0.1801,-0.1814,-0.1759,-0.1945,-0.1815,-0.1818,-0.182,-0.1821,-0.1822,-0.2138,-0.2133,-0.2152,-0.2152,-0.2171,-0.2164,-0.2127,-0.2167,-0.2158,-0.2131,-0.2188,-0.2116,-0.2027,-0.1839,-0.1761,-0.1623,-0.1688,-0.1588,-0.1629,-0.1663,-0.1603,-0.1722,-0.1562,-0.1563,-0.1564,-0.1565,-0.1566,0,-0.204,-0.2038,-0.2039,-0.2032,-0.1996,-0.2046,-0.2038,-0.1979,-0.1921,-0.1965,-0.1932,-0.1875,-0.1719,-0.165,-0.1509,-0.1418,-0.1388,-0.1388,-0.1432,-0.1403,-0.1508,-0.1495,-0.1292,-0.1292,-0.1292,-0.1292,-0.1292,-0.1292,-0.1991,-0.1947,-0.1943,-0.1845,-0.1831,-0.1731,-0.1691,-0.1643,-0.1642,-0.1597,-0.1609,-0.1643,-0.1586,-0.161,-0.1449,-0.1356,-0.1329,-0.1279,-0.1299,-0.1409,-0.1433,-0.1455,-0.1447,-0.1237,-0.1238,-0.1145,-0.1144,-0.1144]},{"header":{"parameterUnit":"m.s-1","parameterCategory":2,"la1":30.2991,"la2":30.254,"lo1":-89.0895,"lo2":-89.0444,"dy":0.0017,"dx":0.0017,"nx":28,"ny":28,"refTime":"2026-02-15T09:00:00:Z","depth":"0","parameterNumber":3,"parameterNumberName":"V-component_of_CURRENTS"},"data":[0,0,0,0,0,0,0,0,0,0,0,0,0,0,0,0,0,0,0,0,0,0,0,0,0,0,0,0,0,0,0,0,0,0,0,0,0,0,0,0,0,0,0,0,0,0,0,0,0,0,0,0,0,0,0,0,0,0,-0.0435,-0.0434,0,-0.0374,-0.0373,-0.0372,-0.0324,-0.0324,-0.0324,-0.0324,-0.0193,-0.019,-0.0187,0,0,0,0,0,0,0,0,0,0,0,0,0,-0.0443,-0.0444,-0.0435,-0.0434,-0.0434,-0.0374,-0.0373,-0.0372,-0.0324,-0.0324,-0.0324,-0.0324,-0.0195,-0.0191,-0.0187,0,0,0,0,0,0,0,0,0,0,0,0,0,-0.0414,-0.0444,-0.0435,-0.0405,-0.0402,-0.0374,-0.0373,-0.0371,-0.0324,-0.0324,-0.0324,-0.0324,-0.0196,-0.0191,-0.0186,-0.0162,0,0,-0.0171,-0.0169,0,0,0,0,0,0,0,0,-0.0416,-0.0414,-0.041,-0.0407,-0.0403,-0.0359,-0.0328,-0.0299,-0.0325,-0.0351,-0.0324,-0.0323,-0.0244,-0.0235,-0.0222,-0.0156,-0.0151,-0.0171,-0.0168,-0.0166,-0.0164,0,0,0,0,0,0,0,-0.0418,-0.0416,-0.0408,-0.0409,-0.0405,-0.0372,-0.0368,-0.0322,-0.0297,-0.0349,-0.0346,-0.0343,-0.0242,-0.0227,-0.0218,-0.0149,-0.0171,-0.0167,-0.0164,-0.0162,-0.0035,-0.0034,0,0,0,0,0,0,-0.0435,-0.0418,-0.041,-0.0406,-0.0412,-0.0372,-0.0368,-0.0371,-0.0299,-0.0289,-0.0344,-0.0341,-0.0235,-0.0224,-0.0213,-0.0173,-0.0166,-0.0161,-0.0158,-0.0035,-0.0034,-0.0034,0,0,0,0,0,0,-0.0436,-0.0435,-0.0412,-0.0412,-0.0407,-0.0373,-0.0377,-0.037,-0.0356,-0.0296,-0.0284,-0.0337,-0.0235,-0.022,-0.0173,-0.0168,-0.0159,-0.0154,-0.0035,-0.0035,-0.0034,-0.0097,0,0,0,0,0,0,-0.0436,-0.0436,-0.0441,-0.0414,-0.0408,-0.0402,-0.0378,-0.0369,-0.0356,-0.0353,-0.0287,-0.0274,-0.0233,-0.0181,-0.0168,-0.0161,-0.0151,-0.0036,-0.0035,-0.0034,-0.0095,-0.0098,-0.0101,0,0,0,0,0,-0.0437,-0.045,-0.0442,-0.044,-0.0418,-0.0403,-0.0396,-0.0369,-0.0357,-0.0353,-0.0306,-0.0276,-0.0166,-0.0177,-0.0162,-0.0153,-0.0036,-0.0035,-0.0034,-0.0094,-0.0098,-0.0101,0,0,0,0,0,0,-0.0453,-0.0446,-0.0436,-0.0445,-0.0428,-0.0396,-0.0392,-0.0374,-0.0335,-0.033,-0.0271,-0.0256,-0.0213,-0.0173,-0.0186,-0.0113,-0.0096,-0.0092,-0.0146,-0.0149,-0.0152,-0.0171,-0.0147,0,0,0,0,0,-0.0462,-0.047,-0.0452,-0.0458,-0.0454,-0.0423,-0.0413,-0.0396,-0.0362,-0.0346,-0.03,-0.0246,-0.0197,-0.0167,-0.0121,-0.0081,-0.0042,-0.0064,-0.0067,-0.007,-0.0075,-0.0016,-0.0014,-0.0031,-0.0031,-0.0031,0,0,-0.0469,-0.0466,-0.0469,-0.0461,-0.0445,-0.0445,-0.0415,-0.0407,-0.0398,-0.0336,-0.0305,-0.0257,-0.019,-0.0147,-0.0123,-0.0112,-0.0044,-0.0069,-0.0072,-0.0075,-0.0015,-0.0013,-0.0012,-0.003,-0.003,-0.003,0,0,-0.0494,-0.0486,-0.0505,-0.0496,-0.0483,-0.0462,-0.0464,-0.0435,-0.0413,-0.0381,-0.0332,-0.0282,-0.0212,-0.0161,-0.0126,-0.0114,-0.0065,-0.0099,-0.0123,-0.0066,-0.0065,-0.0063,-0.0012,-0.0005,-0.0096,-0.0096,-0.0096,0,-0.0502,-0.0525,-0.0505,-0.0519,-0.0515,-0.0475,-0.0489,-0.0459,-0.0416,-0.0394,-0.0379,-0.027,-0.0217,-0.0153,-0.0151,-0.0121,-0.0086,-0.0119,-0.0072,-0.0069,-0.0066,-0.0014,-0.0006,-0.0099,-0.0098,-0.0098,-0.0098,0,-0.0543,-0.0558,-0.0566,-0.0571,-0.056,-0.0565,-0.0529,-0.0508,-0.0476,-0.0441,-0.038,-0.0306,-0.024,-0.0214,-0.0179,-0.0128,-0.0109,-0.0089,-0.0069,-0.0069,-0.0013,-0.0004,-0.0103,-0.0102,-0.0101,-0.01,0,0,-0.0571,-0.0594,-0.0596,-0.061,-0.0591,-0.0587,-0.0567,-0.0535,-0.0515,-0.046,-0.0425,-0.034,-0.0298,-0.0255,-0.0199,-0.0149,-0.0097,-0.0118,-0.0114,-0.0079,0.0024,0.0061,0.0076,-0.0073,-0.0071,-0.007,0.0054,0,-0.0609,-0.0658,-0.0648,-0.0674,-0.0694,-0.0649,-0.0633,-0.0592,-0.0541,-0.0494,-0.0409,-0.0356,-0.0312,-0.0281,-0.0223,-0.0129,-0.0074,-0.0133,0.0028,0.0033,0.0057,0.0087,0.0126,0.0242,0.0063,0.0065,0.0066,0,-0.0654,-0.0681,-0.0727,-0.0734,-0.0736,-0.0737,-0.0697,-0.0676,-0.0594,-0.0552,-0.048,-0.0412,-0.0323,-0.0292,-0.0132,-0.0174,-0.0084,-0.0012,-0.0005,0.0057,0.0089,0.0215,0.0267,0.0407,0.0082,0.0081,0.008,0,-0.0697,-0.0731,-0.0771,-0.0776,-0.0776,-0.0775,-0.0761,-0.0696,-0.0671,-0.0587,-0.0554,-0.0441,-0.0379,-0.0259,-0.0107,-0.012,0.0067,0.0075,0.0197,0.02,0.028,0.0288,0.0477,0.0187,0.0186,0.0186,0.0186,0,-0.0749,-0.0778,-0.0799,-0.0824,-0.0854,-0.0827,-0.0826,-0.079,-0.0728,-0.0694,-0.0589,-0.0531,-0.037,-0.0241,-0.0112,0.0078,0.0072,0.02,0.024,0.026,0.0264,0.0427,0.0475,0.0191,0.019,0.0189,0.0188,0,-0.0797,-0.0813,-0.0861,-0.0878,-0.0883,-0.0903,-0.0888,-0.0879,-0.081,-0.0761,-0.0738,-0.0591,-0.0419,-0.0244,-0.0035,0.0078,0.0347,0.0318,0.0326,0.0364,0.059,0.0631,0.0852,0.0938,0.0468,0.047,0.0471,0,-0.0829,-0.0863,-0.0909,-0.0939,-0.0953,-0.0972,-0.0983,-0.0932,-0.0912,-0.079,-0.0768,-0.0597,-0.0456,-0.0132,0.0096,0.0342,0.0446,0.0511,0.0497,0.0621,0.0697,0.0723,0.0781,0.0583,0.0586,0.0587,0.0589,0,-0.0882,-0.0899,-0.0939,-0.1008,-0.1039,-0.1065,-0.1068,-0.1066,-0.0988,-0.092,-0.0797,-0.0674,-0.035,-0.0052,0.0263,0.0413,0.0621,0.0556,0.0697,0.0815,0.0847,0.0942,0.0474,0.0605,0.0604,0.0602,0.0602,0.0601,-0.091,-0.0955,-0.101,-0.107,-0.1111,-0.1142,-0.115,-0.1126,-0.1081,-0.0952,-0.0828,-0.0592,-0.0175,0.0282,0.0451,0.0815,0.0776,0.0923,0.0967,0.0986,0.1063,0.0623,0.0784,0.0783,0.0783,0.0782,0.0782,0,-0.094,-0.0995,-0.1063,-0.1132,-0.1182,-0.1185,-0.1192,-0.1163,-0.1103,-0.0938,-0.0781,-0.0283,0.013,0.0518,0.1011,0.1211,0.1257,0.1313,0.1372,0.1415,0.1051,0.1049,0.1259,0.1259,0.1259,0.1259,0.1259,0.1259,-0.0957,-0.1034,-0.1076,-0.1171,-0.1215,-0.1244,-0.1242,-0.1176,-0.1048,-0.0747,-0.0444,-0.0181,0.0374,0.1094,0.1539,0.1587,0.1756,0.1751,0.1834,0.1587,0.1553,0.1522,0.1533,0.1842,0.1843,0.2194,0.2197,0.22]}],[{"header":{"parameterUnit":"m.s-1","parameterCategory":2,"la1":30.2991,"la2":30.254,"lo1":-89.0895,"lo2":-89.0444,"dy":0.0017,"dx":0.0017,"nx":28,"ny":28,"refTime":"2026-02-15T09:00:00:Z","depth":"2","parameterNumber":2,"parameterNumberName":"U-component_of_CURRENTS"},"data":[0,0,0,0,0,0,0,0,0,0,0,0,0,0,0,0,0,0,0,0,0,0,0,0,0,0,0,0,0,0,0,0,0,0,0,0,0,0,0,0,0,0,0,0,0,0,0,0,0,0,0,0,0,0,0,0,0,0,-0.2095,-0.2096,0,-0.2118,-0.2119,-0.2119,-0.21,-0.21,-0.2099,-0.2098,-0.2073,-0.2073,-0.2073,0,0,0,0,0,0,0,0,0,0,0,0,0,-0.2045,-0.2046,-0.2095,-0.2096,-0.2096,-0.2118,-0.2119,-0.2119,-0.21,-0.21,-0.2099,-0.2098,-0.2073,-0.2073,-0.2073,0,0,0,0,0,0,0,0,0,0,0,0,0,-0.2065,-0.2046,-0.2095,-0.2091,-0.2091,-0.2118,-0.2119,-0.2119,-0.21,-0.21,-0.2099,-0.2098,-0.2074,-0.2073,-0.2073,-0.2091,0,0,-0.2073,-0.2073,0,0,0,0,0,0,0,0,-0.2064,-0.2067,-0.2091,-0.2091,-0.2091,-0.2107,-0.2092,-0.2108,-0.2101,-0.2095,-0.2098,-0.2097,-0.2082,-0.2081,-0.2086,-0.2089,-0.2088,-0.2073,-0.2073,-0.2073,-0.2073,0,0,0,0,0,0,0,-0.2063,-0.2066,-0.2102,-0.2092,-0.2092,-0.2092,-0.2093,-0.2095,-0.2091,-0.2095,-0.2095,-0.21,-0.2081,-0.2086,-0.2085,-0.2088,-0.2073,-0.2073,-0.2073,-0.2073,-0.2105,-0.2106,0,0,0,0,0,0,-0.2065,-0.2065,-0.2102,-0.2103,-0.2077,-0.2093,-0.2095,-0.2101,-0.2092,-0.2091,-0.2101,-0.21,-0.2087,-0.2085,-0.2084,-0.2104,-0.2073,-0.2072,-0.2072,-0.2104,-0.2105,-0.2106,0,0,0,0,0,0,-0.2063,-0.2068,-0.2101,-0.2086,-0.209,-0.2095,-0.2103,-0.2102,-0.2106,-0.2097,-0.2094,-0.2104,-0.2086,-0.2084,-0.209,-0.2103,-0.2072,-0.2072,-0.2103,-0.2105,-0.2106,-0.2145,0,0,0,0,0,0,-0.2062,-0.2067,-0.207,-0.2086,-0.2091,-0.212,-0.2104,-0.2104,-0.2112,-0.211,-0.2099,-0.2096,-0.2085,-0.2091,-0.209,-0.2102,-0.2072,-0.2102,-0.2104,-0.2105,-0.2143,-0.2148,-0.2152,0,0,0,0,0,-0.206,-0.2069,-0.207,-0.2075,-0.2096,-0.2121,-0.2124,-0.2122,-0.2113,-0.212,-0.2114,-0.2096,-0.2101,-0.2092,-0.2091,-0.2103,-0.2101,-0.2103,-0.2105,-0.214,-0.2147,-0.2152,0,0,0,0,0,0,-0.2048,-0.2069,-0.207,-0.2085,-0.2103,-0.2119,-0.2125,-0.2127,-0.2129,-0.2124,-0.211,-0.2107,-0.2118,-0.2108,-0.2098,-0.2119,-0.2098,-0.21,-0.2125,-0.2131,-0.2136,-0.2129,-0.2072,0,0,0,0,0,-0.2049,-0.2058,-0.2082,-0.2093,-0.2103,-0.2115,-0.2123,-0.2128,-0.2134,-0.2134,-0.213,-0.2125,-0.2128,-0.2127,-0.2128,-0.214,-0.2117,-0.2148,-0.2153,-0.2157,-0.2151,-0.2135,-0.2137,-0.2113,-0.2113,-0.2113,0,0,-0.2046,-0.2059,-0.2064,-0.2091,-0.2102,-0.2125,-0.2117,-0.2135,-0.2152,-0.2131,-0.2146,-0.2143,-0.2136,-0.215,-0.2154,-0.2142,-0.2152,-0.2159,-0.2163,-0.2155,-0.2137,-0.2139,-0.2141,-0.2115,-0.2115,-0.2114,0,0,-0.2049,-0.2059,-0.2071,-0.2092,-0.2118,-0.213,-0.2138,-0.216,-0.2164,-0.2185,-0.2174,-0.2177,-0.2185,-0.2181,-0.218,-0.2212,-0.2179,-0.2216,-0.2231,-0.2216,-0.2217,-0.2218,-0.2191,-0.2189,-0.2216,-0.2216,-0.2216,0,-0.2044,-0.2064,-0.2079,-0.2103,-0.2119,-0.2135,-0.2157,-0.2173,-0.2193,-0.2198,-0.2192,-0.2202,-0.2198,-0.2208,-0.2221,-0.2221,-0.2203,-0.221,-0.2221,-0.2221,-0.2221,-0.2193,-0.219,-0.2218,-0.2218,-0.2218,-0.2218,0,-0.206,-0.208,-0.2091,-0.2124,-0.2146,-0.2167,-0.2197,-0.2215,-0.2222,-0.2233,-0.2246,-0.2243,-0.2243,-0.225,-0.2245,-0.2251,-0.2234,-0.223,-0.2203,-0.2226,-0.2194,-0.2191,-0.2221,-0.2221,-0.222,-0.222,0,0,-0.2033,-0.209,-0.2092,-0.2111,-0.2158,-0.2176,-0.2211,-0.224,-0.2253,-0.2271,-0.2279,-0.2292,-0.2284,-0.2282,-0.2277,-0.2267,-0.2257,-0.2252,-0.225,-0.2218,-0.2213,-0.2135,-0.2123,-0.2254,-0.2254,-0.2254,-0.2189,0,-0.2036,-0.2077,-0.2108,-0.2146,-0.2169,-0.2202,-0.2232,-0.2262,-0.2279,-0.2295,-0.2295,-0.2301,-0.2299,-0.2296,-0.229,-0.2269,-0.225,-0.2274,-0.22,-0.2198,-0.212,-0.2117,-0.1984,-0.1909,-0.2186,-0.2185,-0.2184,0,-0.2036,-0.2065,-0.2102,-0.2154,-0.2166,-0.2193,-0.2232,-0.2262,-0.2294,-0.2306,-0.2315,-0.2315,-0.2314,-0.2303,-0.2269,-0.2285,-0.225,-0.2227,-0.2224,-0.2132,-0.2113,-0.1932,-0.1892,-0.2178,-0.2179,-0.2179,-0.218,0,-0.1998,-0.2057,-0.2082,-0.2102,-0.2167,-0.2184,-0.2215,-0.2257,-0.2276,-0.2307,-0.2313,-0.2318,-0.2307,-0.2282,-0.2244,-0.2256,-0.219,-0.2199,-0.209,-0.2084,-0.1944,-0.1926,-0.2157,-0.2157,-0.2157,-0.2158,-0.2158,0,-0.1985,-0.2005,-0.2065,-0.2081,-0.2105,-0.2161,-0.2184,-0.2219,-0.2259,-0.227,-0.2307,-0.2302,-0.23,-0.2268,-0.2239,-0.2145,-0.2182,-0.2081,-0.2059,-0.1954,-0.1939,-0.2154,-0.2155,-0.2155,-0.2156,-0.2156,-0.2157,0,-0.1939,-0.1983,-0.2011,-0.2072,-0.2088,-0.2103,-0.216,-0.2173,-0.2225,-0.2239,-0.2246,-0.2278,-0.2237,-0.2215,-0.2161,-0.2115,-0.2051,-0.2004,-0.1876,-0.184,-0.1958,-0.1962,-0.188,-0.1877,-0.1874,-0.1871,-0.1869,0,-0.1918,-0.1927,-0.1983,-0.1991,-0.2016,-0.2049,-0.2066,-0.2138,-0.2155,-0.2212,-0.2205,-0.2192,-0.215,-0.2051,-0.197,-0.1878,-0.1954,-0.1705,-0.1703,-0.1941,-0.1928,-0.1936,-0.1944,-0.1535,-0.153,-0.1527,-0.1524,0,-0.1862,-0.188,-0.19,-0.1917,-0.1936,-0.1959,-0.1993,-0.2004,-0.2079,-0.2091,-0.2093,-0.2067,-0.1984,-0.1828,-0.1716,-0.1653,-0.1715,-0.1624,-0.1891,-0.163,-0.1611,-0.1601,-0.162,-0.149,-0.1494,-0.1496,-0.1498,-0.1499,-0.18,-0.1794,-0.1813,-0.1817,-0.1842,-0.1842,-0.1817,-0.1863,-0.1867,-0.1856,-0.1923,-0.1834,-0.1797,-0.1552,-0.1445,-0.1358,-0.1479,-0.1419,-0.1433,-0.1449,-0.1426,-0.1402,-0.1238,-0.1239,-0.1241,-0.1242,-0.1243,0,-0.1706,-0.1705,-0.1707,-0.1705,-0.1679,-0.1731,-0.1738,-0.1689,-0.1646,-0.1667,-0.1642,-0.1456,-0.1337,-0.1298,-0.1111,-0.1057,-0.1061,-0.1013,-0.1034,-0.1067,-0.1097,-0.1057,-0.077,-0.0769,-0.0767,-0.0766,0,0,-0.1655,-0.1614,-0.161,-0.153,-0.1527,-0.1447,-0.1421,-0.1375,-0.1358,-0.1276,-0.1231,-0.1309,-0.1296,-0.106,-0.098,-0.085,-0.0954,-0.0801,-0.1184,-0.1245,-0.1274,-0.1333,-0.1309,0,0,0,0,0]},{"header":{"parameterUnit":"m.s-1","parameterCategory":2,"la1":30.2991,"la2":30.254,"lo1":-89.0895,"lo2":-89.0444,"dy":0.0017,"dx":0.0017,"nx":28,"ny":28,"refTime":"2026-02-15T09:00:00:Z","depth":"2","parameterNumber":3,"parameterNumberName":"V-component_of_CURRENTS"},"data":[0,0,0,0,0,0,0,0,0,0,0,0,0,0,0,0,0,0,0,0,0,0,0,0,0,0,0,0,0,0,0,0,0,0,0,0,0,0,0,0,0,0,0,0,0,0,0,0,0,0,0,0,0,0,0,0,0,0,-0.0425,-0.0425,0,-0.0375,-0.0375,-0.0374,-0.0333,-0.0333,-0.0332,-0.0332,-0.0218,-0.0215,-0.0212,0,0,0,0,0,0,0,0,0,0,0,0,0,-0.0427,-0.0427,-0.0425,-0.0425,-0.0425,-0.0376,-0.0375,-0.0374,-0.0333,-0.0333,-0.0332,-0.0332,-0.0219,-0.0215,-0.0212,0,0,0,0,0,0,0,0,0,0,0,0,0,-0.0405,-0.0428,-0.0425,-0.04,-0.0397,-0.0376,-0.0375,-0.0374,-0.0333,-0.0333,-0.0332,-0.0332,-0.022,-0.0216,-0.0212,-0.0192,0,0,-0.0199,-0.0197,0,0,0,0,0,0,0,0,-0.0406,-0.0404,-0.0404,-0.0402,-0.0399,-0.0362,-0.0334,-0.031,-0.0333,-0.0355,-0.0332,-0.0332,-0.0262,-0.0254,-0.0243,-0.0187,-0.0182,-0.0198,-0.0196,-0.0194,-0.0193,0,0,0,0,0,0,0,-0.0408,-0.0406,-0.0403,-0.0404,-0.04,-0.0371,-0.0368,-0.0329,-0.0308,-0.0353,-0.035,-0.0349,-0.026,-0.0247,-0.024,-0.018,-0.0198,-0.0195,-0.0192,-0.019,-0.0082,-0.0081,0,0,0,0,0,0,-0.0422,-0.0408,-0.0405,-0.0402,-0.0404,-0.0372,-0.0368,-0.0372,-0.031,-0.0301,-0.0349,-0.0347,-0.0255,-0.0245,-0.0236,-0.0202,-0.0194,-0.019,-0.0187,-0.0082,-0.0082,-0.0081,0,0,0,0,0,0,-0.0422,-0.0423,-0.0407,-0.0405,-0.0401,-0.0373,-0.0377,-0.0372,-0.036,-0.0308,-0.0297,-0.0344,-0.0254,-0.0242,-0.0202,-0.0197,-0.0188,-0.0184,-0.0082,-0.0082,-0.0081,-0.0139,0,0,0,0,0,0,-0.0423,-0.0423,-0.0428,-0.0406,-0.0402,-0.0401,-0.0378,-0.0371,-0.0361,-0.0357,-0.03,-0.0289,-0.0253,-0.0209,-0.0198,-0.0191,-0.0181,-0.0083,-0.0082,-0.0082,-0.0137,-0.014,-0.0143,0,0,0,0,0,-0.0423,-0.0437,-0.0429,-0.0429,-0.0412,-0.0401,-0.0396,-0.0373,-0.0361,-0.036,-0.0319,-0.0291,-0.0196,-0.0205,-0.0192,-0.0185,-0.0083,-0.0082,-0.0082,-0.0136,-0.014,-0.0143,0,0,0,0,0,0,-0.0438,-0.0433,-0.0425,-0.0435,-0.0422,-0.0395,-0.0393,-0.0377,-0.0345,-0.034,-0.0288,-0.0274,-0.0239,-0.0203,-0.0213,-0.015,-0.0134,-0.0131,-0.018,-0.0183,-0.0186,-0.0201,-0.0177,0,0,0,0,0,-0.0446,-0.0455,-0.0441,-0.0448,-0.0445,-0.0419,-0.0411,-0.0397,-0.0369,-0.0355,-0.0315,-0.0267,-0.0225,-0.0199,-0.016,-0.0125,-0.0086,-0.011,-0.0113,-0.0115,-0.0118,-0.0058,-0.0056,-0.0079,-0.0079,-0.0079,0,0,-0.0453,-0.0452,-0.0456,-0.0451,-0.0438,-0.0441,-0.0413,-0.0408,-0.0402,-0.0346,-0.0322,-0.0279,-0.022,-0.0183,-0.0163,-0.0152,-0.0089,-0.0114,-0.0117,-0.0119,-0.0057,-0.0055,-0.0053,-0.0078,-0.0078,-0.0078,0,0,-0.0478,-0.0472,-0.049,-0.0484,-0.0474,-0.0457,-0.046,-0.0436,-0.0417,-0.0391,-0.0347,-0.0302,-0.0243,-0.0196,-0.0165,-0.0157,-0.011,-0.0145,-0.0165,-0.0106,-0.0104,-0.0102,-0.0055,-0.0048,-0.0141,-0.0141,-0.0141,0,-0.0487,-0.0509,-0.0491,-0.0506,-0.0504,-0.047,-0.0484,-0.046,-0.0424,-0.0404,-0.0392,-0.0294,-0.0247,-0.0189,-0.0188,-0.0163,-0.0129,-0.016,-0.0111,-0.0108,-0.0104,-0.0056,-0.0048,-0.0144,-0.0143,-0.0143,-0.0143,0,-0.0526,-0.0541,-0.055,-0.0557,-0.0549,-0.0556,-0.0527,-0.051,-0.0482,-0.045,-0.0396,-0.0329,-0.0268,-0.0245,-0.0214,-0.0164,-0.0148,-0.0128,-0.0108,-0.0106,-0.0055,-0.0045,-0.0148,-0.0147,-0.0146,-0.0145,0,0,-0.0553,-0.0576,-0.0578,-0.0593,-0.0579,-0.0579,-0.0563,-0.0537,-0.052,-0.0471,-0.0438,-0.0361,-0.032,-0.0282,-0.023,-0.0178,-0.0126,-0.015,-0.0146,-0.0113,-0.0005,0.0016,0.0029,-0.01,-0.0099,-0.0097,0.0018,0,-0.0589,-0.0637,-0.0628,-0.0657,-0.0677,-0.064,-0.0628,-0.0593,-0.0548,-0.0506,-0.0424,-0.0375,-0.0334,-0.0304,-0.0246,-0.0157,-0.0102,-0.0159,-0.0004,0.0001,0.0012,0.0041,0.0022,0.0124,0.0028,0.003,0.0031,0,-0.0631,-0.0658,-0.0703,-0.0715,-0.0718,-0.0722,-0.0691,-0.0674,-0.0599,-0.0562,-0.0491,-0.0427,-0.0339,-0.0309,-0.0153,-0.0194,-0.0108,-0.0038,-0.0032,0.0015,0.004,0.011,0.0146,0.0048,0.0047,0.0046,0.0044,0,-0.0671,-0.0706,-0.0746,-0.0752,-0.0757,-0.0759,-0.075,-0.0693,-0.0672,-0.0593,-0.0562,-0.0452,-0.0391,-0.0272,-0.013,-0.014,0.004,0.005,0.0154,0.0156,0.0186,0.0188,0.0163,0.0163,0.0163,0.0162,0.0162,0,-0.0719,-0.0748,-0.0772,-0.0796,-0.0828,-0.0807,-0.0811,-0.078,-0.0724,-0.0694,-0.0595,-0.0539,-0.0381,-0.0258,-0.0134,0.0042,0.0045,0.0158,0.0193,0.0165,0.0164,0.0133,0.0128,0.0167,0.0166,0.0165,0.0164,0,-0.0762,-0.0779,-0.0827,-0.0847,-0.0855,-0.0876,-0.0869,-0.0863,-0.0803,-0.0758,-0.0736,-0.0597,-0.0435,-0.0268,-0.0065,0.004,0.0202,0.0264,0.0213,0.024,0.0279,0.0269,0.0392,0.0394,0.0395,0.0396,0.0398,0,-0.079,-0.0823,-0.0871,-0.0902,-0.0917,-0.0941,-0.0953,-0.0912,-0.0895,-0.0787,-0.0765,-0.0606,-0.0474,-0.0172,0.0036,0.0264,0.026,0.037,0.0353,0.0283,0.0305,0.0293,0.0282,0.0371,0.0372,0.0373,0.0373,0,-0.0838,-0.0855,-0.0894,-0.0962,-0.0996,-0.1025,-0.1033,-0.1033,-0.0967,-0.0905,-0.0791,-0.0677,-0.0385,-0.0135,0.0148,0.0279,0.0329,0.039,0.0356,0.0307,0.0271,0.029,0.0279,0.0379,0.0379,0.0378,0.0378,0.0378,-0.0863,-0.0905,-0.0957,-0.1017,-0.1061,-0.1094,-0.1105,-0.1085,-0.1046,-0.0928,-0.0818,-0.0611,-0.0382,0.0034,0.0232,0.0415,0.041,0.0458,0.0454,0.0449,0.0416,0.0385,0.0508,0.0508,0.0508,0.0508,0.0508,0,-0.089,-0.094,-0.1006,-0.1075,-0.1125,-0.1133,-0.1144,-0.1119,-0.1062,-0.0919,-0.0775,-0.0495,-0.0207,0.0035,0.0331,0.0498,0.0482,0.0522,0.0467,0.046,0.0455,0.042,0.0514,0.0515,0.0515,0.0515,0,0,-0.0907,-0.0976,-0.1014,-0.1107,-0.1154,-0.1188,-0.1188,-0.1126,-0.1017,-0.0861,-0.0693,-0.0476,-0.0184,0.0021,0.0232,0.0385,0.0379,0.04,0.038,0.0284,0.0277,0.0406,0.0344,0,0,0,0,0]}],[{"header":{"parameterUnit":"m.s-1","parameterCategory":2,"la1":30.2991,"la2":30.254,"lo1":-89.0895,"lo2":-89.0444,"dy":0.0017,"dx":0.0017,"nx":28,"ny":28,"refTime":"2026-02-15T09:00:00:Z","depth":"4","parameterNumber":2,"parameterNumberName":"U-component_of_CURRENTS"},"data":[0,0,0,0,0,0,0,0,0,0,0,0,0,0,0,0,0,0,0,0,0,0,0,0,0,0,0,0,0,0,0,0,0,0,0,0,0,0,0,0,0,0,0,0,0,0,0,0,0,0,0,0,0,0,0,0,0,0,-0.1453,-0.1453,0,-0.1501,-0.1501,-0.1502,-0.1532,-0.1532,-0.1533,-0.1533,-0.1571,-0.1572,-0.1572,0,0,0,0,0,0,0,0,0,0,0,0,0,-0.1385,-0.1386,-0.1453,-0.1454,-0.1454,-0.1501,-0.1501,-0.1502,-0.1532,-0.1532,-0.1533,-0.1533,-0.1571,-0.1571,-0.1572,0,0,0,0,0,0,0,0,0,0,0,0,0,-0.1421,-0.1386,-0.1453,-0.1476,-0.1479,-0.1501,-0.1502,-0.1502,-0.1532,-0.1532,-0.1533,-0.1533,-0.157,-0.1571,-0.1572,-0.157,0,0,-0.1576,-0.1576,0,0,0,0,0,0,0,0,-0.1419,-0.1423,-0.1472,-0.1474,-0.1477,-0.1512,-0.1492,-0.1525,-0.1532,-0.151,-0.1533,-0.1533,-0.1551,-0.1554,-0.156,-0.1572,-0.1574,-0.1576,-0.1577,-0.1577,-0.1577,0,0,0,0,0,0,0,-0.1416,-0.1421,-0.147,-0.1473,-0.1476,-0.1484,-0.1489,-0.1498,-0.1526,-0.1512,-0.1515,-0.1522,-0.1552,-0.1559,-0.1561,-0.1574,-0.1576,-0.1577,-0.1578,-0.1578,-0.1652,-0.1653,0,0,0,0,0,0,-0.1413,-0.1419,-0.1469,-0.1472,-0.145,-0.1484,-0.149,-0.1499,-0.1526,-0.1531,-0.1522,-0.1523,-0.1557,-0.156,-0.1562,-0.1624,-0.1577,-0.1578,-0.1579,-0.1651,-0.1652,-0.1654,0,0,0,0,0,0,-0.1411,-0.1417,-0.1467,-0.1447,-0.1455,-0.1485,-0.1495,-0.15,-0.1531,-0.1534,-0.1539,-0.155,-0.1557,-0.1561,-0.1596,-0.1623,-0.1579,-0.158,-0.1649,-0.1651,-0.1653,-0.1706,0,0,0,0,0,0,-0.1409,-0.1416,-0.1433,-0.1447,-0.1456,-0.1497,-0.1495,-0.1501,-0.1534,-0.1537,-0.156,-0.1562,-0.1558,-0.1594,-0.1597,-0.1624,-0.158,-0.1648,-0.165,-0.1652,-0.1703,-0.171,-0.1715,0,0,0,0,0,-0.1406,-0.1423,-0.1433,-0.144,-0.1474,-0.1498,-0.1503,-0.1525,-0.1535,-0.1553,-0.1572,-0.1563,-0.1611,-0.1596,-0.1599,-0.1627,-0.1646,-0.1649,-0.1652,-0.17,-0.1708,-0.1715,0,0,0,0,0,0,-0.1404,-0.1428,-0.144,-0.1465,-0.1488,-0.1504,-0.1526,-0.1539,-0.1569,-0.1579,-0.158,-0.1584,-0.1624,-0.1619,-0.1602,-0.1655,-0.1627,-0.1631,-0.1662,-0.167,-0.1677,-0.1671,-0.1581,0,0,0,0,0,-0.141,-0.1431,-0.1454,-0.1477,-0.149,-0.1513,-0.1531,-0.1547,-0.1568,-0.1583,-0.16,-0.1618,-0.1634,-0.1648,-0.166,-0.169,-0.1671,-0.171,-0.1716,-0.1722,-0.1719,-0.1719,-0.1724,-0.1663,-0.1663,-0.1663,0,0,-0.1417,-0.1433,-0.1447,-0.1478,-0.1499,-0.1524,-0.1525,-0.156,-0.1587,-0.1581,-0.1632,-0.1643,-0.1647,-0.1682,-0.1699,-0.1685,-0.173,-0.1726,-0.173,-0.1725,-0.1722,-0.1728,-0.1733,-0.1665,-0.1665,-0.1665,0,0,-0.143,-0.1455,-0.1475,-0.1498,-0.1534,-0.1549,-0.1565,-0.1598,-0.1622,-0.1665,-0.1669,-0.1697,-0.1728,-0.1735,-0.174,-0.1789,-0.1763,-0.1799,-0.1828,-0.1828,-0.1833,-0.1837,-0.1818,-0.182,-0.1803,-0.1803,-0.1803,0,-0.1439,-0.1463,-0.1486,-0.1511,-0.1534,-0.1563,-0.159,-0.1618,-0.1662,-0.1683,-0.169,-0.174,-0.1749,-0.1779,-0.1801,-0.1803,-0.1792,-0.1798,-0.1836,-0.1839,-0.1842,-0.1822,-0.1823,-0.1806,-0.1806,-0.1805,-0.1805,0,-0.1457,-0.1489,-0.1505,-0.1545,-0.1574,-0.1604,-0.1642,-0.168,-0.1714,-0.1736,-0.1786,-0.18,-0.1826,-0.1839,-0.1837,-0.1869,-0.185,-0.1843,-0.1813,-0.1851,-0.1828,-0.1828,-0.181,-0.1809,-0.1808,-0.1807,0,0,-0.1439,-0.1504,-0.1513,-0.1539,-0.1596,-0.1618,-0.1673,-0.172,-0.1754,-0.18,-0.1837,-0.1876,-0.1886,-0.1893,-0.1897,-0.1902,-0.1918,-0.1888,-0.1887,-0.1864,-0.1908,-0.1774,-0.1761,-0.192,-0.1921,-0.1921,-0.1882,0,-0.1447,-0.1495,-0.153,-0.1584,-0.161,-0.1659,-0.1704,-0.1754,-0.1797,-0.1841,-0.1866,-0.1903,-0.1906,-0.1923,-0.1932,-0.1925,-0.1922,-0.1929,-0.1879,-0.1877,-0.1748,-0.1758,-0.1922,-0.1882,-0.1882,-0.1882,-0.1882,0,-0.1445,-0.148,-0.1533,-0.1601,-0.1619,-0.166,-0.1732,-0.1776,-0.1841,-0.1874,-0.1915,-0.1934,-0.1964,-0.1955,-0.1956,-0.1962,-0.194,-0.1925,-0.1923,-0.1777,-0.1743,-0.1836,-0.1881,-0.1881,-0.1881,-0.1881,-0.1881,0,-0.1406,-0.1479,-0.1522,-0.1547,-0.163,-0.167,-0.1717,-0.1789,-0.1825,-0.1896,-0.1921,-0.196,-0.1975,-0.1971,-0.195,-0.196,-0.1928,-0.1933,-0.1787,-0.1777,-0.1887,-0.1883,-0.1919,-0.1919,-0.1919,-0.1919,-0.1919,0,-0.1383,-0.1421,-0.1513,-0.1536,-0.1588,-0.1657,-0.1715,-0.1768,-0.1838,-0.1867,-0.1934,-0.1944,-0.1981,-0.197,-0.1953,-0.1857,-0.1928,-0.1781,-0.1755,-0.191,-0.191,-0.1886,-0.1883,-0.1918,-0.1918,-0.1918,-0.1918,0,-0.1328,-0.1392,-0.1443,-0.1539,-0.1571,-0.161,-0.1705,-0.1734,-0.1816,-0.1853,-0.1875,-0.1934,-0.1914,-0.1917,-0.1895,-0.1832,-0.1774,-0.172,-0.1872,-0.1857,-0.1625,-0.1625,-0.1555,-0.155,-0.1546,-0.1542,-0.1539,0,-0.13,-0.1323,-0.1428,-0.1456,-0.1504,-0.1573,-0.161,-0.1709,-0.1736,-0.1825,-0.1822,-0.1842,-0.186,-0.1715,-0.1743,-0.1674,-0.1653,-0.161,-0.163,-0.1604,-0.1587,-0.1594,-0.16,-0.1532,-0.1531,-0.153,-0.1529,0,-0.1237,-0.1287,-0.1327,-0.1384,-0.1435,-0.148,-0.1545,-0.1551,-0.1649,-0.174,-0.1714,-0.1689,-0.1652,-0.1623,-0.1565,-0.1527,-0.1637,-0.1565,-0.1574,-0.1592,-0.1575,-0.1564,-0.1575,-0.1514,-0.1516,-0.1517,-0.1518,0,-0.1185,-0.1194,-0.125,-0.1284,-0.1346,-0.1358,-0.1411,-0.1432,-0.147,-0.1574,-0.1559,-0.1583,-0.1638,-0.1544,-0.1502,-0.1439,-0.1422,-0.1377,-0.1396,-0.1413,-0.1382,-0.1341,-0.1172,0,0,0,0,0,-0.1121,-0.1113,-0.114,-0.1171,-0.1228,-0.1259,-0.1347,-0.1401,-0.1499,-0.1437,-0.1494,-0.1457,-0.1392,-0.141,-0.1311,-0.1427,-0.1423,-0.1306,-0.1382,-0.143,-0.1448,-0.1422,0,0,0,0,0,0,-0.1074,-0.1097,-0.1099,-0.1064,-0.1062,-0.1107,-0.1157,-0.1229,-0.1207,-0.1312,-0.1283,-0.1359,-0.1315,-0.1415,-0.1276,-0.1277,-0.1292,-0.1329,-0.1324,-0.142,-0.1436,-0.145,-0.143,0,0,0,0,0]},{"header":{"parameterUnit":"m.s-1","parameterCategory":2,"la1":30.2991,"la2":30.254,"lo1":-89.0895,"lo2":-89.0444,"dy":0.0017,"dx":0.0017,"nx":28,"ny":28,"refTime":"2026-02-15T09:00:00:Z","depth":"4","parameterNumber":3,"parameterNumberName":"V-component_of_CURRENTS"},"data":[0,0,0,0,0,0,0,0,0,0,0,0,0,0,0,0,0,0,0,0,0,0,0,0,0,0,0,0,0,0,0,0,0,0,0,0,0,0,0,0,0,0,0,0,0,0,0,0,0,0,0,0,0,0,0,0,0,0,-0.0322,-0.0322,0,-0.0297,-0.0296,-0.0296,-0.0274,-0.0274,-0.0274,-0.0274,-0.0197,-0.0195,-0.0193,0,0,0,0,0,0,0,0,0,0,0,0,0,-0.031,-0.0311,-0.0322,-0.0322,-0.0322,-0.0297,-0.0296,-0.0296,-0.0274,-0.0274,-0.0274,-0.0274,-0.0197,-0.0195,-0.0193,0,0,0,0,0,0,0,0,0,0,0,0,0,-0.0302,-0.0311,-0.0322,-0.0309,-0.0308,-0.0297,-0.0296,-0.0296,-0.0274,-0.0274,-0.0274,-0.0274,-0.0198,-0.0195,-0.0192,-0.0177,0,0,-0.0183,-0.0182,0,0,0,0,0,0,0,0,-0.0302,-0.0302,-0.0311,-0.031,-0.0309,-0.029,-0.0264,-0.0254,-0.0274,-0.0285,-0.0274,-0.0274,-0.0224,-0.0219,-0.0213,-0.0173,-0.017,-0.0183,-0.0181,-0.018,-0.0179,0,0,0,0,0,0,0,-0.0303,-0.0303,-0.031,-0.0311,-0.031,-0.0291,-0.0289,-0.0262,-0.0254,-0.0284,-0.0283,-0.0283,-0.0223,-0.0216,-0.0211,-0.0168,-0.0183,-0.018,-0.0179,-0.0177,-0.0105,-0.0104,0,0,0,0,0,0,-0.0312,-0.0304,-0.0311,-0.031,-0.0307,-0.0291,-0.029,-0.0295,-0.0255,-0.025,-0.0283,-0.0282,-0.0221,-0.0214,-0.0208,-0.019,-0.018,-0.0177,-0.0175,-0.0105,-0.0105,-0.0104,0,0,0,0,0,0,-0.0312,-0.0313,-0.0312,-0.0307,-0.0306,-0.0292,-0.0297,-0.0294,-0.0292,-0.0255,-0.0248,-0.0285,-0.0221,-0.0212,-0.0188,-0.0187,-0.0176,-0.0173,-0.0105,-0.0105,-0.0104,-0.0152,0,0,0,0,0,0,-0.0312,-0.0313,-0.0321,-0.0308,-0.0306,-0.0313,-0.0298,-0.0294,-0.0293,-0.0291,-0.0254,-0.0247,-0.022,-0.0193,-0.0185,-0.0182,-0.0171,-0.0105,-0.0105,-0.0105,-0.0151,-0.0153,-0.0156,0,0,0,0,0,-0.0311,-0.0325,-0.0321,-0.0322,-0.0317,-0.0314,-0.0312,-0.03,-0.0293,-0.0296,-0.0269,-0.0248,-0.0185,-0.0191,-0.0181,-0.0178,-0.0105,-0.0105,-0.0105,-0.0149,-0.0153,-0.0156,0,0,0,0,0,0,-0.0323,-0.0324,-0.032,-0.0332,-0.0327,-0.0311,-0.0314,-0.0305,-0.0287,-0.0285,-0.0248,-0.0239,-0.0217,-0.019,-0.0197,-0.0155,-0.0141,-0.0139,-0.0178,-0.0181,-0.0183,-0.0192,-0.0168,0,0,0,0,0,-0.033,-0.0341,-0.0334,-0.0344,-0.0344,-0.033,-0.0328,-0.0321,-0.0304,-0.0296,-0.027,-0.0238,-0.0208,-0.019,-0.0163,-0.014,-0.0105,-0.013,-0.0133,-0.0136,-0.0136,-0.0081,-0.0079,-0.0103,-0.0103,-0.0103,0,0,-0.0337,-0.0339,-0.0345,-0.0347,-0.0342,-0.0348,-0.0328,-0.0331,-0.0332,-0.0289,-0.0281,-0.0249,-0.0205,-0.0182,-0.0169,-0.0159,-0.0111,-0.0135,-0.0138,-0.0137,-0.008,-0.0078,-0.0076,-0.0103,-0.0103,-0.0103,0,0,-0.0359,-0.036,-0.0377,-0.0376,-0.0375,-0.0365,-0.0369,-0.0358,-0.0349,-0.0336,-0.0304,-0.027,-0.0233,-0.0196,-0.0172,-0.017,-0.013,-0.0164,-0.018,-0.0127,-0.0124,-0.0121,-0.008,-0.0074,-0.0161,-0.0161,-0.0161,0,-0.0369,-0.039,-0.038,-0.0395,-0.0398,-0.0377,-0.0393,-0.038,-0.0361,-0.0349,-0.0341,-0.0272,-0.0236,-0.0193,-0.0194,-0.0176,-0.0146,-0.0174,-0.013,-0.0127,-0.0123,-0.0082,-0.0074,-0.0164,-0.0163,-0.0163,-0.0163,0,-0.0401,-0.0419,-0.0428,-0.044,-0.044,-0.0451,-0.0435,-0.0428,-0.0413,-0.0392,-0.0355,-0.0303,-0.0259,-0.0241,-0.0218,-0.0175,-0.0162,-0.0145,-0.0125,-0.0124,-0.008,-0.0071,-0.0167,-0.0166,-0.0165,-0.0165,0,0,-0.0421,-0.0448,-0.0452,-0.0469,-0.0467,-0.0473,-0.0469,-0.0457,-0.045,-0.0416,-0.0396,-0.0337,-0.0303,-0.0274,-0.0232,-0.0185,-0.0135,-0.0161,-0.0157,-0.0126,-0.0026,-0.004,-0.0031,-0.0113,-0.0111,-0.011,-0.0008,0,-0.045,-0.0495,-0.0494,-0.0528,-0.0548,-0.0528,-0.0527,-0.0509,-0.048,-0.0453,-0.0386,-0.0352,-0.0316,-0.0294,-0.024,-0.0162,-0.0112,-0.0165,-0.0027,-0.0023,-0.004,-0.0021,-0.0105,-0.0001,0.0001,0.0003,0.0004,0,-0.0482,-0.0509,-0.0555,-0.0578,-0.0584,-0.0598,-0.0588,-0.0583,-0.0531,-0.0505,-0.045,-0.0398,-0.0322,-0.0295,-0.0155,-0.0193,-0.0116,-0.0054,-0.0048,-0.0037,-0.002,0.0001,0.0021,0.002,0.0018,0.0017,0.0016,0,-0.0507,-0.0549,-0.059,-0.06,-0.062,-0.0632,-0.0635,-0.0601,-0.0592,-0.0535,-0.0513,-0.0419,-0.0368,-0.026,-0.0135,-0.0142,0.0017,0.0029,0.0092,0.0092,0.0094,0.009,0.0131,0.0131,0.0131,0.013,0.013,0,-0.0538,-0.0571,-0.0611,-0.0634,-0.0676,-0.0671,-0.0691,-0.0674,-0.064,-0.0622,-0.0543,-0.0497,-0.0358,-0.0251,-0.0139,0.0002,0.002,0.0093,0.0121,0.007,0.0063,0.01,0.0095,0.0134,0.0133,0.0132,0.0132,0,-0.0558,-0.0586,-0.0638,-0.0678,-0.0694,-0.0722,-0.0743,-0.0746,-0.0709,-0.0679,-0.0662,-0.0549,-0.041,-0.0267,-0.0085,-0.0008,0.013,0.0177,0.0106,0.0126,0.017,0.0162,0.0258,0.0259,0.0259,0.0259,0.026,0,-0.0572,-0.0604,-0.0674,-0.0711,-0.0736,-0.0776,-0.0798,-0.0784,-0.0776,-0.0702,-0.0681,-0.0555,-0.0464,-0.0211,-0.0072,0.0136,0.0163,0.0223,0.0203,0.0168,0.0186,0.0176,0.0168,0.026,0.026,0.026,0.026,0,-0.0595,-0.0625,-0.0667,-0.0746,-0.0792,-0.0833,-0.0859,-0.0856,-0.082,-0.0792,-0.0674,-0.0541,-0.0387,-0.0204,-0.0049,0.0101,0.0176,0.0228,0.0228,0.0209,0.0172,0.0187,0.0178,0.0262,0.0262,0.0261,0.0261,0,-0.0607,-0.0644,-0.0705,-0.0768,-0.0832,-0.0868,-0.0881,-0.0854,-0.0836,-0.0744,-0.0706,-0.0531,-0.0431,-0.0221,-0.0073,0.0064,0.0097,0.0132,0.0138,0.0138,0.0064,-0.0003,0.0062,0,0,0,0,0,-0.0611,-0.0655,-0.072,-0.0789,-0.0852,-0.0884,-0.0907,-0.0903,-0.0869,-0.0786,-0.074,-0.0586,-0.0354,-0.0251,-0.0113,-0.0083,0.0101,0.0079,0.0138,0.0269,0.0267,0.02,0,0,0,0,0,0,-0.0617,-0.0681,-0.0716,-0.079,-0.0837,-0.0895,-0.091,-0.0889,-0.083,-0.0775,-0.0644,-0.0567,-0.0339,-0.0428,-0.0113,-0.0073,-0.0021,0.0191,0.0194,0.027,0.0268,0.0267,0.0197,0,0,0,0,0]}]]